User: anonymous   Login
Location: Newark
(42.9277°N, 71.8621°W)
Time: 07:58:15
(UTC+00:00)
Language:

Altair - Orbit

View from above orbital plane
View from above orbital plane
View from above satellite
View from above satellite

Ground track
Ground track

The orbit data is extracted from the following two-line orbital elements,

1    50U 60009B   20146.45536753 -.00000067 +00000-0 +15958-3 0  9996
2    50 047.2295 192.6494 0114517 257.0475 101.7505 12.20111960667865
Epoch (UTC): 25 May 2020 10:55:43
Eccentricity: 0.0114517
inclination: 47.2295°
perigee height: 1501 km
apogee height: 1683 km
right ascension of ascending node: 192.6494°
argument of perigee: 257.0475°
revolutions per day: 12.20111960
mean anomaly at epoch: 101.7505°
orbit number at epoch: 66786

The dashed part of the orbit path shows where the satellite is in the earth's shadow,  

DLR